CW2939 Weather Reports


time (UTC)temp
F
wind
direction
speed
knots
gust
knots
rain 1hr
in
rain 24hr
in
rain mn
in
humidity
%
barometer
mb
20260507161405 67 115 7.8 11.3 0.00 0.03 0.03 51 1009.7
20260507154904 68 99 6.1 10.4 0.00 0.03 0.03 48 1009.7
20260507151404 69 37 1.7 5.2 0.00 0.03 0.03 50 1009.9
20260507150404 67 205 4.3 13.9 0.00 0.03 0.03 53 1010.0
20260507143404 68 123 5.2 10.4 0.00 0.03 0.03 56 1010.5
20260507140905 66 106 8.7 12.2 0.00 0.03 0.03 59 1010.7
20260507140404 66 118 7.8 14.8 0.00 0.03 0.03 57 1010.8
20260507133904 64 106 5.2 14.8 0.00 0.03 0.03 69 1011.4
20260507131906 63 84 4.3 8.7 0.00 0.03 0.03 73 1011.6
20260507131405 62 89 5.2 12.2 0.00 0.03 0.03 72 1011.6
20260507130904 63 117 6.1 10.4 0.00 0.03 0.03 70 1011.6
20260507124904 63 116 11.3 15.6 0.00 0.03 0.03 68 1011.7
20260507123904 63 100 8.7 14.8 0.00 0.03 0.03 71 1012.0
20260507120404 62 117 10.4 18.2 0.00 0.03 0.03 71 1012.2
20260507114904 62 121 11.3 17.4 0.00 0.03 0.03 76 1012.1
20260507114404 62 117 7.0 15.6 0.00 0.03 0.03 76 1012.1
20260507111404 61 124 8.7 13.9 0.03 0.03 0.03 75 1012.3
20260507110904 61 116 7.8 14.8 0.03 0.03 0.03 76 1012.2
20260507110404 61 110 6.1 17.4 0.03 0.03 0.03 78 1012.2
20260507104904 60 105 7.8 11.3 0.03 0.03 0.03 81 1012.1
20260507103904 60 136 8.7 14.8 0.03 0.03 0.03 80 1012.3
20260507103404 59 118 8.7 15.6 0.03 0.03 0.03 80 1012.1
20260507100904 61 106 8.7 20.0 0.00 0.00 0.00 80 1011.4
20260507094904 63 122 11.3 20.0 0.00 0.00 0.00 78 1011.1
20260507093405 63 124 12.2 21.7 0.00 0.00 0.00 78 1011.1
20260507090404 63 118 12.2 22.6 0.00 0.00 0.00 78 1011.2
20260507084905 62 118 12.2 18.2 0.00 0.00 0.00 78 1011.3
20260507083904 62 117 10.4 17.4 0.00 0.00 0.00 79 1011.2
20260507081904 62 132 8.7 17.4 0.00 0.00 0.00 80 1011.1
20260507080904 62 107 8.7 14.8 0.00 0.00 0.00 82 1011.1
20260507073905 61 120 6.1 12.2 0.00 0.00 0.00 80 1011.3
20260507073404 62 115 7.8 12.2 0.00 0.00 0.00 79 1011.3
20260507071904 61 97 1.7 7.0 0.00 0.00 0.00 80 1011.2
20260507071404 60 119 2.6 6.1 0.00 0.00 0.00 81 1011.2
20260507063904 58 198 0.9 1.7 0.00 0.00 0.00 77 1010.9
20260507060404 57 232 1.7 2.6 0.00 0.00 0.00 74 1010.6
20260507054904 57 255 1.7 2.6 0.00 0.00 0.00 72 1010.5
20260507054404 57 239 1.7 2.6 0.00 0.00 0.00 72 1010.4
20260507053904 57 232 0.9 1.7 0.00 0.00 0.00 72 1010.3
20260507053404 56 235 1.7 2.6 0.00 0.00 0.00 73 1010.3
20260507051904 56 239 1.7 2.6 0.00 0.00 0.00 74 1010.4
20260507044904 56 65 1.7 2.6 0.00 0.00 0.00 75 1010.1
20260507043904 56 290 0.9 1.7 0.00 0.00 0.00 77 1010.1
20260507041904 55 242 1.7 2.6 0.00 0.00 0.00 75 1009.9
20260507040904 56 250 2.6 2.6 0.00 0.00 0.00 73 1009.8
20260507034404 55 317 0.9 2.6 0.00 0.00 0.00 74 1009.8
20260507031904 55 276 1.7 2.6 0.00 0.00 0.00 81 1010.1
20260507030904 55 302 1.7 2.6 0.00 0.00 0.00 82 1010.0
20260507030404 55 60 2.6 5.2 0.00 0.00 0.00 80 1010.1
20260507024904 55 248 1.7 2.6 0.00 0.00 0.00 83 1010.0
20260507023904 55 262 2.6 2.6 0.00 0.00 0.00 82 1010.0
20260507021903 55 103 0.9 2.6 0.00 0.00 0.00 81 1009.9
20260507021404 55 115 0.9 2.6 0.00 0.00 0.00 81 1010.0
20260507020904 55 127 2.6 2.6 0.00 0.00 0.00 79 1010.0
20260507020404 56 78 1.7 2.6 0.00 0.00 0.00 79 1010.1
20260507013904 56 276 1.7 2.6 0.00 0.00 0.00 80 1010.1
20260507013404 56 259 2.6 5.2 0.00 0.00 0.00 79 1010.2
20260507011404 56 264 2.6 2.6 0.00 0.00 0.00 80 1010.2
20260507010904 56 286 2.6 5.2 0.00 0.00 0.00 78 1010.3
20260507010404 56 289 1.7 2.6 0.00 0.00 0.00 77 1010.3
20260507004904 57 320 0.9 2.6 0.00 0.00 0.00 79 1010.3
20260507004404 57 320 1.7 2.6 0.00 0.00 0.00 80 1010.3
20260507003904 57 320 1.7 2.6 0.00 0.00 0.00 79 1010.3
20260507001904 57 317 0.9 2.6 0.00 0.00 0.00 78 1010.4
20260507000904 58 331 0.9 1.7 0.00 0.00 0.00 78 1010.6
20260507000405 58 324 1.7 2.6 0.00 0.00 0.00 80 1010.6
20260506233904 58 341 1.7 2.6 0.00 0.00 0.00 78 1010.9
20260506233404 58 351 2.6 2.6 0.00 0.00 0.00 77 1011.1
20260506231404 58 355 1.7 2.6 0.00 0.00 0.00 77 1011.0
20260506230904 59 347 1.7 2.6 0.00 0.00 0.00 78 1011.1
20260506230404 59 0 0.0 2.6 0.00 0.00 0.00 81 1011.1
20260506221904 59 310 0.9 2.6 0.00 0.00 0.00 77 1010.9
20260506221404 59 63 0.0 0.0 0.00 0.00 0.00 78 1011.0
20260506220903 59 67 0.0 0.9 0.00 0.00 0.00 78 1010.9
20260506214904 60 29 1.7 2.6 0.00 0.00 0.00 77 1010.9
20260506213404 60 30 0.0 0.9 0.00 0.00 0.00 75 1011.1
20260506210903 61 121 0.9 2.6 0.00 0.00 0.00 74 1010.9
20260506204404 61 149 0.9 2.6 0.00 0.00 0.00 71 1010.6
20260506203404 61 122 2.6 5.2 0.00 0.00 0.00 73 1010.5
20260506201904 61 110 4.3 6.1 0.00 0.00 0.00 75 1010.4
20260506201403 61 97 4.3 6.1 0.00 0.00 0.00 74 1010.3
20260506194404 64 180 0.9 2.6 0.00 0.00 0.00 61 1009.7
20260506193904 64 158 0.9 2.6 0.00 0.00 0.00 58 1009.7
20260506193404 64 134 0.9 5.2 0.00 0.00 0.00 57 1009.6
20260506190404 66 118 1.7 2.6 0.00 0.00 0.00 49 1009.3
20260506184904 67 105 1.7 2.6 0.00 0.00 0.00 46 1009.1
20260506183404 66 126 0.9 2.6 0.00 0.00 0.00 46 1009.0
20260506181904 66 116 0.9 2.6 0.00 0.00 0.00 48 1008.9
20260506181404 66 120 1.7 4.3 0.00 0.00 0.00 48 1009.0
20260506173404 67 121 2.6 10.4 0.00 0.00 0.00 47 1009.1
20260506171904 67 44 6.1 12.2 0.00 0.00 0.00 46 1009.1
20260506170403 68 101 4.3 10.4 0.00 0.00 0.00 45 1009.0
20260506164904 68 85 2.6 10.4 0.00 0.00 0.00 44 1009.0
20260506163904 68 104 6.1 13.0 0.00 0.00 0.00 43 1009.1
20260506163403 69 152 5.2 12.2 0.00 0.00 0.00 42 1009.1